Weather History for Versailles, OH

Change the Weather History Date:

Monday, October 15, 2012

  Actual Average (KDAY) Record (KDAY)
Temperature  
Mean Temperature 47 °F 54 °F  
Max Temperature 55 °F 64 °F 91 °F (1899)
Min Temperature 37 °F 44 °F 28 °F (1939)
Degree Days  
Heating Degree Days 18 11  
Month to date heating degree days 138  
Since 1 July heating degree days 228  
Cooling Degree Days 0 0  
Month to date cooling degree days 10  
Year to date cooling degree days 891  
Moisture  
Dew Point 44 °F    
Average Humidity 84    
Maximum Humidity 100    
Minimum Humidity 62    
Precipitation  
Precipitation 0.00 in 0.10 in 1.16 in (1914)
Month to date precipitation 1.46  
Year to date precipitation 33.07  
Snow  
Snow 0.00 in 0.00 in - ()
Month to date snowfall 0.0  
Since 1 July snowfall 0.0  
Since 1 September snowfall 0.0  
Snow Depth -    
Sea Level Pressure  
Sea Level Pressure 29.87 in    
Wind  
Wind Speed 11 mph (WNW)    
Max Wind Speed 20 mph    
Max Gust Speed 30 mph    
Visibility 10 miles    
Events      
T = Trace of Precipitation, MM = Missing Value Source: NWS Daily Summary

Daily Weather History Graph

Daily Weather History Graph

Search for Another Location

Airport:

Trip Planner

Search our weather history database for the weather conditions in past years. The results will help you decide how hot, cold, wet, or windy it might be!

Date:

Astronomy

Oct. 15, 2012 Rise Set
Actual Time 7:49 AM EDT 6:57 PM EDT
Civil Twilight 7:21 AM EDT 7:24 PM EDT
Nautical Twilight 6:50 AM EDT 7:56 PM EDT
Astronomical Twilight 6:18 AM EDT 8:27 PM EDT
Moon 7:58 AM EDT (10/15) 6:56 PM EDT (10/15)
Length of Visible Light 12h 03m
Length of Day
11h 08m
New Moon, 0% of the Moon is Illuminated
Oct 15
New Moon
Oct 21
First Quarter
Oct 29
Full
Nov 6
Last Quarter
Nov 13
New

Hourly Weather History & Observations

Time (EDT) Temp. Windchill Dew Point Humidity Pressure Visibility Wind Dir Wind Speed Gust Speed Precip Events Conditions
12:15 AM 51.8 °F - 50.0 °F 94% 29.76 in 10.0 mi West 19.6 mph 29.9 mph N/A   Overcast
12:35 AM 51.8 °F - 50.0 °F 94% 29.77 in 10.0 mi West 17.3 mph 20.7 mph N/A   Overcast
12:55 AM 51.8 °F - 48.2 °F 88% 29.78 in 10.0 mi WNW 12.7 mph 27.6 mph N/A   Overcast
1:15 AM 51.8 °F - 46.4 °F 82% 29.78 in 10.0 mi West 12.7 mph 19.6 mph N/A   Overcast
1:35 AM 51.8 °F - 48.2 °F 88% 29.78 in 10.0 mi West 9.2 mph - N/A   Overcast
1:55 AM 51.8 °F - 48.2 °F 88% 29.78 in 10.0 mi West 11.5 mph 16.1 mph N/A   Overcast
2:15 AM 51.8 °F - 48.2 °F 88% 29.78 in 10.0 mi West 10.4 mph - N/A   Overcast
2:35 AM 51.8 °F - 50.0 °F 94% 29.78 in 10.0 mi West 8.1 mph - N/A   Overcast
2:55 AM 51.8 °F - 50.0 °F 94% 29.79 in 10.0 mi West 9.2 mph - N/A   Overcast
3:15 AM 50.0 °F - 50.0 °F 100% 29.79 in 10.0 mi West 9.2 mph - N/A   Overcast
3:35 AM 50.0 °F - 48.2 °F 94% 29.79 in 10.0 mi West 11.5 mph 20.7 mph N/A   Overcast
3:55 AM 50.0 °F - 48.2 °F 94% 29.78 in 10.0 mi West 10.4 mph 18.4 mph N/A   Overcast
4:15 AM 50.0 °F - 46.4 °F 87% 29.78 in 10.0 mi West 8.1 mph - N/A   Overcast
4:35 AM 50.0 °F - 46.4 °F 87% 29.78 in 10.0 mi West 6.9 mph - N/A   Overcast
4:55 AM 50.0 °F - 46.4 °F 87% 29.78 in 10.0 mi West 8.1 mph - N/A   Overcast
5:15 AM 50.0 °F - 46.4 °F 87% 29.79 in 10.0 mi West 11.5 mph - N/A   Overcast
5:55 AM 50.0 °F - 46.4 °F 87% 29.80 in 10.0 mi West 4.6 mph - N/A   Overcast
6:15 AM 50.0 °F - 48.2 °F 94% 29.80 in 7.0 mi WSW 6.9 mph - N/A   Overcast
6:55 AM 50.0 °F - 48.2 °F 94% 29.80 in 10.0 mi WSW 6.9 mph - N/A   Overcast
7:15 AM 50.0 °F - 48.2 °F 94% 29.80 in 10.0 mi West 8.1 mph - N/A   Overcast
7:35 AM 50.0 °F - 46.4 °F 87% 29.80 in 10.0 mi WNW 13.8 mph 19.6 mph N/A   Overcast
8:15 AM 48.2 °F - 46.4 °F 93% 29.82 in 10.0 mi WNW 11.5 mph 16.1 mph N/A   Overcast
8:35 AM 48.2 °F - 44.6 °F 87% 29.82 in 10.0 mi WNW 11.5 mph 20.7 mph N/A   Overcast
8:55 AM 46.4 °F 41.5 °F 44.6 °F 93% 29.83 in 7.0 mi WNW 10.4 mph - N/A   Overcast
9:15 AM 46.4 °F 41.9 °F 46.4 °F 100% 29.84 in 7.0 mi WNW 9.2 mph - N/A   Overcast
9:35 AM 46.4 °F 40.4 °F 44.6 °F 93% 29.84 in 10.0 mi WNW 13.8 mph 19.6 mph N/A   Overcast
9:55 AM 46.4 °F 41.5 °F 44.6 °F 93% 29.85 in 10.0 mi WNW 10.4 mph 19.6 mph N/A   Overcast
10:15 AM 48.2 °F - 44.6 °F 87% 29.86 in 10.0 mi WNW 15.0 mph 19.6 mph N/A   Overcast
10:35 AM 48.2 °F - 44.6 °F 87% 29.86 in 10.0 mi WNW 15.0 mph 20.7 mph N/A   Overcast
10:55 AM 48.2 °F - 44.6 °F 87% 29.87 in 10.0 mi WNW 11.5 mph 19.6 mph N/A   Overcast
11:35 AM 48.2 °F - 44.6 °F 87% 29.88 in 10.0 mi WNW 13.8 mph 19.6 mph N/A   Overcast
11:55 AM 48.2 °F - 44.6 °F 87% 29.88 in 10.0 mi WNW 13.8 mph 21.9 mph N/A   Overcast
12:15 PM 50.0 °F - 44.6 °F 82% 29.88 in 10.0 mi West 12.7 mph 20.7 mph N/A   Overcast
12:35 PM 50.0 °F - 44.6 °F 82% 29.89 in 10.0 mi WNW 10.4 mph 18.4 mph N/A   Overcast
12:55 PM 50.0 °F - 44.6 °F 82% 29.90 in 10.0 mi WNW 10.4 mph - N/A   Overcast
1:15 PM 51.8 °F - 44.6 °F 76% 29.90 in 10.0 mi WNW 12.7 mph 17.3 mph N/A   Overcast
1:35 PM 51.8 °F - 42.8 °F 71% 29.90 in 10.0 mi WNW 15.0 mph - N/A   Overcast
1:55 PM 51.8 °F - 42.8 °F 71% 29.90 in 10.0 mi WNW 13.8 mph 20.7 mph N/A   Overcast
2:15 PM 51.8 °F - 42.8 °F 71% 29.90 in 10.0 mi West 13.8 mph 18.4 mph N/A   Overcast
2:35 PM 53.6 °F - 42.8 °F 67% 29.90 in 10.0 mi West 15.0 mph - N/A   Mostly Cloudy
2:55 PM 55.4 °F - 42.8 °F 63% 29.90 in 10.0 mi West 11.5 mph 17.3 mph N/A   Clear
3:15 PM 53.6 °F - 41.0 °F 62% 29.90 in 10.0 mi West 11.5 mph 19.6 mph N/A   Mostly Cloudy
3:35 PM 51.8 °F - 41.0 °F 67% 29.90 in 10.0 mi WNW 11.5 mph 19.6 mph N/A   Overcast
3:55 PM 51.8 °F - 41.0 °F 67% 29.91 in 10.0 mi West 15.0 mph 19.6 mph N/A   Overcast
4:15 PM 51.8 °F - 41.0 °F 67% 29.91 in 10.0 mi WNW 9.2 mph - N/A   Overcast
4:35 PM 51.8 °F - 41.0 °F 67% 29.92 in 10.0 mi North - - N/A   Overcast
4:55 PM 51.8 °F - 41.0 °F 67% 29.91 in 10.0 mi North - - N/A   Overcast
5:15 PM 51.8 °F - 41.0 °F 67% 29.92 in 10.0 mi WNW 10.4 mph 18.4 mph N/A   Overcast
5:35 PM 51.8 °F - 41.0 °F 67% 29.92 in 10.0 mi WNW 6.9 mph - N/A   Overcast
5:55 PM 51.8 °F - 41.0 °F 67% 29.92 in 10.0 mi WNW 9.2 mph - N/A   Overcast
6:15 PM 50.0 °F - 41.0 °F 71% 29.92 in 10.0 mi NW 8.1 mph - N/A   Mostly Cloudy
6:35 PM 50.0 °F - 41.0 °F 71% 29.93 in 10.0 mi WNW 6.9 mph - N/A   Overcast
6:55 PM 50.0 °F - 41.0 °F 71% 29.93 in 10.0 mi WNW 5.8 mph - N/A   Overcast
7:15 PM 50.0 °F - 41.0 °F 71% 29.93 in 10.0 mi WNW 5.8 mph - N/A   Overcast
7:35 PM 46.4 °F 44.3 °F 41.0 °F 81% 29.93 in 10.0 mi WNW 4.6 mph - N/A   Scattered Clouds
7:55 PM 44.6 °F 42.2 °F 41.0 °F 87% 29.94 in 10.0 mi NW 4.6 mph - N/A   Scattered Clouds
8:15 PM 44.6 °F 43.1 °F 41.0 °F 87% 29.95 in 10.0 mi North 3.5 mph - N/A   Mostly Cloudy
8:35 PM 46.4 °F 42.9 °F 41.0 °F 81% 29.95 in 10.0 mi North 6.9 mph - N/A   Overcast
8:55 PM 44.6 °F 42.2 °F 41.0 °F 87% 29.95 in 10.0 mi North 4.6 mph - N/A   Scattered Clouds
9:15 PM 42.8 °F 40.1 °F 41.0 °F 93% 29.97 in 10.0 mi North 4.6 mph - N/A   Clear
9:35 PM 42.8 °F 41.1 °F 41.0 °F 93% 29.97 in 10.0 mi North 3.5 mph - N/A   Clear
9:55 PM 41.0 °F - 39.2 °F 93% 29.97 in 10.0 mi Calm Calm - N/A   Clear
10:15 PM 42.8 °F - 39.2 °F 87% 29.97 in 10.0 mi Calm Calm - N/A   Clear
10:35 PM 41.0 °F - 37.4 °F 87% 29.97 in 10.0 mi Calm Calm - N/A   Clear
10:55 PM 39.2 °F - 37.4 °F 93% 29.97 in 7.0 mi Calm Calm - N/A   Clear
11:15 PM 39.2 °F - 37.4 °F 93% 29.97 in 5.0 mi Calm Calm - N/A   Clear
11:35 PM 39.2 °F - 39.2 °F 100% 29.97 in 5.0 mi Calm Calm - N/A   Clear
11:55 PM 37.4 °F 34.9 °F 37.4 °F 100% 29.97 in 4.0 mi West 3.5 mph - N/A   Clear